TimeEDT,TemperatureF,Dew PointF,Humidity,Sea Level PressureIn,VisibilityMPH,Wind Direction,Wind SpeedMPH,Gust SpeedMPH,PrecipitationIn,Events,Conditions,WindDirDegrees,DateUTC
12:35 AM,68.5,65.3,89,29.94,10.0,Calm,Calm,-,N/A,,Overcast,0,2013-10-04 04:35:00
12:55 AM,68.4,65.3,90,29.93,10.0,Calm,Calm,-,N/A,,Mostly Cloudy,0,2013-10-04 04:55:00
1:15 AM,68.2,65.5,91,29.94,10.0,Calm,Calm,-,N/A,,Scattered Clouds,0,2013-10-04 05:15:00
1:35 AM,68.4,65.7,91,29.94,10.0,Calm,Calm,-,N/A,,Mostly Cloudy,0,2013-10-04 05:35:00
1:55 AM,68.5,65.8,91,29.95,10.0,SW,5.8,-,N/A,,Mostly Cloudy,230,2013-10-04 05:55:00
2:15 AM,68.2,65.8,92,29.94,5.0,WSW,6.9,-,N/A,Rain,Rain,240,2013-10-04 06:15:00
2:35 AM,68.0,66.0,93,29.96,10.0,West,4.6,-,N/A,,Overcast,270,2013-10-04 06:35:00
2:55 AM,67.6,66.2,95,29.96,5.0,Calm,Calm,-,N/A,Rain,Light Rain,0,2013-10-04 06:55:00
3:15 AM,67.1,66.2,97,29.95,5.0,Calm,Calm,-,N/A,Rain,Rain,0,2013-10-04 07:15:00
3:35 AM,67.1,66.2,97,29.95,7.0,Calm,Calm,-,N/A,,Overcast,0,2013-10-04 07:35:00
3:55 AM,66.4,65.7,98,29.94,4.0,Calm,Calm,-,N/A,,Light Drizzle,0,2013-10-04 07:55:00
4:15 AM,65.8,65.3,98,29.94,4.0,South,4.6,-,N/A,,Scattered Clouds,180,2013-10-04 08:15:00
4:34 AM,66.2,65.7,98,29.93,7.0,South,3.5,-,N/A,,Clear,170,2013-10-04 08:34:00
4:55 AM,66.7,65.8,97,29.92,10.0,South,4.6,-,N/A,,Clear,170,2013-10-04 08:55:00
5:15 AM,66.7,65.5,96,29.92,10.0,South,6.9,-,N/A,,Clear,170,2013-10-04 09:15:00
5:34 AM,67.1,65.3,94,29.92,10.0,SSW,6.9,-,N/A,,Clear,200,2013-10-04 09:34:00
5:55 AM,67.1,65.3,94,29.95,10.0,West,5.8,-,N/A,,Scattered Clouds,260,2013-10-04 09:55:00
6:15 AM,66.6,65.3,96,29.95,7.0,SW,4.6,-,N/A,,Overcast,230,2013-10-04 10:15:00
6:35 AM,66.6,65.3,96,29.96,7.0,SW,4.6,-,N/A,,Overcast,230,2013-10-04 10:35:00
6:55 AM,66.2,64.8,95,29.96,7.0,SW,3.5,-,N/A,,Scattered Clouds,230,2013-10-04 10:55:00
7:15 AM,65.7,64.6,96,29.97,7.0,SW,3.5,-,N/A,,Clear,230,2013-10-04 11:15:00
7:35 AM,65.8,64.8,96,29.98,7.0,WSW,4.6,-,N/A,,Mostly Cloudy,240,2013-10-04 11:35:00
7:55 AM,67.1,65.3,94,29.99,10.0,WSW,5.8,-,N/A,,Overcast,240,2013-10-04 11:55:00
8:15 AM,67.1,64.9,93,29.99,10.0,WSW,4.6,-,N/A,,Overcast,240,2013-10-04 12:15:00
8:35 AM,67.5,65.3,93,30.00,10.0,West,5.8,-,N/A,,Mostly Cloudy,260,2013-10-04 12:35:00
8:55 AM,67.5,64.9,92,30.00,10.0,NW,3.5,-,N/A,,Scattered Clouds,310,2013-10-04 12:55:00
9:14 AM,68.0,65.3,91,30.00,10.0,Calm,Calm,-,N/A,,Scattered Clouds,0,2013-10-04 13:14:00
9:35 AM,68.9,65.5,89,30.01,10.0,Calm,Calm,-,N/A,,Mostly Cloudy,0,2013-10-04 13:35:00
9:55 AM,68.9,65.5,89,30.01,10.0,Calm,Calm,-,N/A,,Mostly Cloudy,0,2013-10-04 13:55:00
10:14 AM,68.7,65.3,89,30.01,10.0,Calm,Calm,-,N/A,,Scattered Clouds,0,2013-10-04 14:14:00
10:35 AM,70.7,66.0,85,30.01,10.0,Calm,Calm,-,N/A,,Clear,0,2013-10-04 14:35:00
10:55 AM,72.5,65.7,79,30.01,10.0,Calm,Calm,-,N/A,,Clear,0,2013-10-04 14:55:00
11:14 AM,73.8,65.8,76,30.01,10.0,Calm,Calm,-,N/A,,Clear,0,2013-10-04 15:14:00
11:35 AM,74.5,66.0,75,30.01,10.0,West,4.6,-,N/A,,Scattered Clouds,260,2013-10-04 15:35:00
11:55 AM,75.4,66.4,73,30.01,10.0,WSW,3.5,-,N/A,,Mostly Cloudy,250,2013-10-04 15:55:00
12:15 PM,74.7,66.6,76,30.01,10.0,Calm,Calm,-,N/A,,Overcast,0,2013-10-04 16:15:00
12:35 PM,76.1,66.6,72,30.01,10.0,West,6.9,-,N/A,,Overcast,280,2013-10-04 16:35:00
12:55 PM,76.1,66.6,72,30.01,10.0,West,6.9,-,N/A,,Mostly Cloudy,260,2013-10-04 16:55:00
1:15 PM,76.3,66.4,71,30.01,10.0,WSW,5.8,-,N/A,,Mostly Cloudy,250,2013-10-04 17:15:00
1:35 PM,76.3,66.7,72,30.01,10.0,SW,4.6,-,N/A,,Mostly Cloudy,230,2013-10-04 17:35:00
1:55 PM,76.5,66.2,70,30.01,10.0,SW,3.5,-,N/A,,Scattered Clouds,230,2013-10-04 17:55:00
2:15 PM,77.7,65.8,67,30.00,10.0,SW,3.5,-,N/A,,Mostly Cloudy,230,2013-10-04 18:15:00
2:35 PM,77.7,66.0,67,29.99,10.0,South,5.8,-,N/A,,Mostly Cloudy,190,2013-10-04 18:35:00
2:54 PM,77.0,66.0,69,29.99,10.0,SW,3.5,-,N/A,,Scattered Clouds,220,2013-10-04 18:54:00
3:15 PM,77.9,66.0,67,29.99,10.0,WSW,4.6,-,N/A,,Mostly Cloudy,240,2013-10-04 19:15:00
3:35 PM,76.6,66.0,70,29.99,10.0,SSW,3.5,-,N/A,,Mostly Cloudy,210,2013-10-04 19:35:00
3:54 PM,78.1,65.5,65,29.99,10.0,Calm,Calm,-,N/A,,Scattered Clouds,0,2013-10-04 19:54:00
4:15 PM,79.0,65.1,62,29.99,10.0,Calm,Calm,-,N/A,,Clear,0,2013-10-04 20:15:00
4:35 PM,77.9,65.3,65,29.99,10.0,Calm,Calm,-,N/A,,Clear,0,2013-10-04 20:35:00
4:54 PM,78.3,65.3,64,29.99,10.0,Calm,Calm,-,N/A,,Clear,0,2013-10-04 20:54:00
5:15 PM,78.4,65.3,64,30.00,10.0,Calm,Calm,-,N/A,,Clear,0,2013-10-04 21:15:00
5:35 PM,78.1,65.5,65,29.99,10.0,Calm,Calm,-,N/A,,Scattered Clouds,0,2013-10-04 21:35:00
5:55 PM,77.4,66.9,70,29.99,10.0,SSW,4.6,-,N/A,,Mostly Cloudy,200,2013-10-04 21:55:00
6:15 PM,76.8,66.7,71,29.99,10.0,Calm,Calm,-,N/A,,Mostly Cloudy,0,2013-10-04 22:15:00
6:35 PM,76.1,66.7,73,30.00,10.0,Calm,Calm,-,N/A,,Scattered Clouds,0,2013-10-04 22:35:00
6:55 PM,73.4,67.6,82,30.01,10.0,Calm,Calm,-,N/A,,Scattered Clouds,0,2013-10-04 22:55:00
7:15 PM,74.5,68.0,80,30.01,10.0,Calm,Calm,-,N/A,,Mostly Cloudy,0,2013-10-04 23:15:00
7:34 PM,71.6,66.9,85,30.02,10.0,North,10.4,-,N/A,,Mostly Cloudy,10,2013-10-04 23:34:00
7:55 PM,68.9,65.7,89,30.01,10.0,NE,6.9,-,N/A,,Mostly Cloudy,50,2013-10-04 23:55:00
8:15 PM,68.4,65.3,90,30.02,10.0,NE,5.8,-,N/A,,Scattered Clouds,40,2013-10-05 00:15:00
8:34 PM,67.1,64.6,92,30.02,10.0,NNE,5.8,-,N/A,,Scattered Clouds,30,2013-10-05 00:34:00
8:55 PM,66.2,64.2,93,30.03,10.0,NE,5.8,-,N/A,,Scattered Clouds,40,2013-10-05 00:55:00
9:15 PM,65.7,63.9,94,30.04,7.0,NE,5.8,-,N/A,,Scattered Clouds,40,2013-10-05 01:15:00
9:34 PM,65.5,63.9,94,30.03,7.0,NNE,3.5,-,N/A,,Scattered Clouds,20,2013-10-05 01:34:00
9:55 PM,65.3,63.7,94,30.04,7.0,NE,4.6,-,N/A,,Overcast,40,2013-10-05 01:55:00
10:15 PM,64.8,63.5,96,30.04,7.0,NE,4.6,-,N/A,,Overcast,50,2013-10-05 02:15:00
10:35 PM,64.8,63.5,96,30.04,7.0,NNE,4.6,-,N/A,,Overcast,30,2013-10-05 02:35:00
10:55 PM,64.8,63.5,96,30.05,7.0,Calm,Calm,-,N/A,,Overcast,0,2013-10-05 02:55:00
11:15 PM,64.6,63.1,95,30.05,7.0,NNE,4.6,-,N/A,,Overcast,20,2013-10-05 03:15:00
11:35 PM,64.2,62.8,95,30.05,7.0,NE,3.5,-,N/A,,Overcast,40,2013-10-05 03:35:00
11:55 PM,64.0,62.6,95,30.04,7.0,NE,3.5,-,N/A,,Overcast,40,2013-10-05 03:55:00